CST,Max TemperatureF,Mean TemperatureF,Min TemperatureF,Max Dew PointF,MeanDew PointF,Min DewpointF,Max Humidity, Mean Humidity, Min Humidity, Max Sea Level PressureIn, Mean Sea Level PressureIn, Min Sea Level PressureIn, Max VisibilityMiles, Mean VisibilityMiles, Min VisibilityMiles, Max Wind SpeedMPH, Mean Wind SpeedMPH, Max Gust SpeedMPH,PrecipitationIn, CloudCover, Events, WindDirDegrees
2012-11-1,75,57,38,40,36,33,83,59,25,30.07,29.98,29.87,10,10,8,9,5,,0.00,0,,90
2012-11-2,66,49,32,41,38,33,96,73,37,30.16,29.93,29.80,10,9,6,20,8,29,0.00,0,,20
2012-11-3,63,45,26,40,34,26,96,69,37,30.26,30.21,30.15,10,9,7,8,4,,0.00,0,,254
2012-11-4,71,52,32,35,32,27,82,50,20,30.17,30.10,30.00,10,10,10,10,7,,0.00,1,,279
2012-11-5,58,47,36,37,34,31,87,63,40,30.23,30.15,30.07,10,10,8,15,8,23,0.00,1,,318
2012-11-6,67,50,32,40,31,24,79,54,25,30.21,30.14,30.03,10,10,10,17,8,24,0.00,0,,336
2012-11-7,69,48,26,30,26,22,81,48,23,30.21,30.08,29.91,10,10,10,17,5,23,0.00,0,,151
2012-11-8,67,48,29,35,31,25,82,57,30,29.91,29.87,29.81,10,10,10,7,4,,0.00,0,,53
2012-11-9,60,46,32,38,34,28,96,74,46,29.84,29.74,29.63,10,9,3,12,5,18,0.00,0,,29
2012-11-10,81,55,28,48,36,24,96,59,19,29.82,29.57,29.39,10,8,3,32,12,51,0.00,3,,265
2012-11-11,40,28,16,22,13,8,71,53,28,30.34,30.07,29.85,10,10,10,29,16,37,0.00,3,,327
2012-11-12,52,33,13,14,7,4,74,46,15,30.45,30.40,30.35,10,10,10,21,7,30,0.00,0,,278
2012-11-13,59,38,16,23,13,6,69,43,16,30.40,30.31,30.20,10,10,9,14,4,,0.00,0,,189
2012-11-14,61,40,19,27,20,14,82,53,20,30.35,30.26,30.17,10,10,10,9,4,,0.00,0,,225
2012-11-15,60,43,25,30,25,22,81,57,28,30.45,30.31,30.17,10,10,10,14,3,18,0.00,1,,39
2012-11-16,61,40,19,37,28,18,96,68,38,30.47,30.36,30.21,10,10,10,16,5,22,0.00,0,,180
2012-11-17,66,52,38,39,34,29,76,60,32,30.19,30.11,30.04,10,10,6,17,10,24,0.00,0,,195
2012-11-18,65,49,33,39,35,31,89,66,38,30.06,30.00,29.91,10,10,10,20,5,25,0.00,0,,173
2012-11-19,70,50,29,35,31,27,89,54,24,30.22,30.14,30.01,10,9,2,16,6,18,0.00,0,,306
2012-11-20,72,50,27,35,33,31,53,38,24,30.29,30.19,30.10,10,10,10,16,5,22,0.00,0,,218
2012-11-21,75,59,43,39,33,26,68,45,16,30.10,29.94,29.76,10,10,10,22,10,33,0.00,0,,215
2012-11-22,65,49,32,39,29,21,92,53,27,30.43,30.06,29.74,10,10,10,24,10,31,0.00,0,,331
2012-11-23,46,35,23,19,16,13,71,53,30,30.64,30.52,30.39,10,10,10,16,7,,0.00,0,,322
2012-11-24,69,45,20,24,19,14,72,43,19,30.35,30.04,29.84,10,10,10,8,4,,0.00,0,,219
2012-11-25,56,43,29,31,26,20,76,58,38,30.08,29.98,29.91,10,10,10,15,7,,0.00,0,,38
2012-11-26,40,27,13,27,21,11,92,73,57,30.52,30.38,30.09,10,10,6,16,9,,0.00,3,,25
2012-11-27,54,33,12,27,21,13,92,69,35,30.47,30.32,30.17,10,9,6,16,5,,0.00,0,,238
2012-11-28,56,35,14,26,22,12,92,67,33,30.40,30.26,30.09,10,10,6,10,4,,0.00,0,,213
2012-11-29,66,43,20,25,21,17,92,53,17,30.07,30.02,29.94,10,10,10,12,3,21,0.00,0,,249
2012-11-30,61,42,22,32,23,15,82,52,24,30.14,30.01,29.89,10,9,2,12,4,,0.00,0,,128